Year,Month,Day,Hour,Minute,Value (Times are PST for windgust in km/hr)
2015,07,15,00,00,14.50
2015,07,15,00,01,12.90
2015,07,15,00,02,14.50
2015,07,15,00,03,9.60
2015,07,15,00,04,16.10
2015,07,15,00,05,14.50
2015,07,15,00,06,12.90
2015,07,15,00,07,11.30
2015,07,15,00,08,9.60
2015,07,15,00,09,9.60
2015,07,15,00,10,12.90
2015,07,15,00,11,12.90
2015,07,15,00,12,14.50
2015,07,15,00,13,11.30
2015,07,15,00,14,12.90
2015,07,15,00,15,9.60
2015,07,15,00,16,14.50
2015,07,15,00,17,11.30
2015,07,15,00,18,12.90
2015,07,15,00,19,11.30
2015,07,15,00,20,11.30
2015,07,15,00,21,11.30
2015,07,15,00,22,9.60
2015,07,15,00,23,11.30
2015,07,15,00,24,12.90
2015,07,15,00,25,11.30
2015,07,15,00,26,11.30
2015,07,15,00,27,12.90
2015,07,15,00,28,11.30
2015,07,15,00,29,9.60
2015,07,15,00,30,9.60
2015,07,15,00,31,8.10
2015,07,15,00,32,11.30
2015,07,15,00,33,8.10
2015,07,15,00,34,8.10
2015,07,15,00,35,6.40
2015,07,15,00,36,6.40
2015,07,15,00,37,6.40
2015,07,15,00,38,6.40
2015,07,15,00,39,9.60
2015,07,15,00,40,9.60
2015,07,15,00,41,6.40
2015,07,15,00,42,8.10
2015,07,15,00,43,6.40
2015,07,15,00,44,8.10
2015,07,15,00,45,6.40
2015,07,15,00,46,6.40
2015,07,15,00,47,8.10
2015,07,15,00,48,6.40
2015,07,15,00,49,8.10
2015,07,15,00,50,8.10
2015,07,15,00,51,8.10
2015,07,15,00,52,8.10
2015,07,15,00,53,6.40
2015,07,15,00,54,4.80
2015,07,15,00,55,9.60
2015,07,15,00,56,11.30
2015,07,15,00,57,8.10
2015,07,15,00,58,6.40
2015,07,15,00,59,6.40
2015,07,15,01,00,9.60
2015,07,15,01,01,8.10
2015,07,15,01,02,8.10
2015,07,15,01,03,8.10
2015,07,15,01,04,6.40
2015,07,15,01,05,4.80
2015,07,15,01,06,6.40
2015,07,15,01,07,6.40
2015,07,15,01,08,9.60
2015,07,15,01,09,8.10
2015,07,15,01,10,11.30
2015,07,15,01,11,9.60
2015,07,15,01,12,9.60
2015,07,15,01,13,8.10
2015,07,15,01,14,11.30
2015,07,15,01,15,9.60
2015,07,15,01,16,9.60
2015,07,15,01,17,8.10
2015,07,15,01,18,9.60
2015,07,15,01,19,11.30
2015,07,15,01,20,9.60
2015,07,15,01,21,11.30
2015,07,15,01,22,9.60
2015,07,15,01,23,11.30
2015,07,15,01,24,11.30
2015,07,15,01,25,8.10
2015,07,15,01,26,9.60
2015,07,15,01,27,11.30
2015,07,15,01,28,8.10
2015,07,15,01,29,9.60
2015,07,15,01,30,9.60
2015,07,15,01,31,12.90
2015,07,15,01,32,9.60
2015,07,15,01,33,14.50
2015,07,15,01,34,12.90
2015,07,15,01,35,9.60
2015,07,15,01,36,9.60
2015,07,15,01,37,8.10
2015,07,15,01,38,11.30
2015,07,15,01,39,11.30
2015,07,15,01,40,11.30
2015,07,15,01,41,11.30
2015,07,15,01,42,9.60
2015,07,15,01,43,8.10
2015,07,15,01,44,11.30
2015,07,15,01,45,9.60
2015,07,15,01,46,11.30
2015,07,15,01,47,8.10
2015,07,15,01,48,8.10
2015,07,15,01,49,9.60
2015,07,15,01,50,9.60
2015,07,15,01,51,12.90
2015,07,15,01,52,6.40
2015,07,15,01,53,8.10
2015,07,15,01,54,6.40
2015,07,15,01,55,11.30
2015,07,15,01,56,8.10
2015,07,15,01,57,9.60
2015,07,15,01,58,9.60
2015,07,15,01,59,11.30
2015,07,15,02,00,8.10
2015,07,15,02,01,12.90
2015,07,15,02,02,12.90
2015,07,15,02,03,9.60
2015,07,15,02,04,11.30
2015,07,15,02,05,9.60
2015,07,15,02,06,9.60
2015,07,15,02,07,8.10
2015,07,15,02,08,9.60
2015,07,15,02,09,9.60
2015,07,15,02,10,8.10
2015,07,15,02,11,11.30
2015,07,15,02,12,12.90
2015,07,15,02,13,12.90
2015,07,15,02,14,11.30
2015,07,15,02,15,11.30
2015,07,15,02,16,12.90
2015,07,15,02,17,9.60
2015,07,15,02,18,12.90
2015,07,15,02,19,12.90
2015,07,15,02,20,11.30
2015,07,15,02,21,14.50
2015,07,15,02,22,11.30
2015,07,15,02,23,9.60
2015,07,15,02,24,6.40
2015,07,15,02,25,12.90
2015,07,15,02,26,11.30
2015,07,15,02,27,16.10
2015,07,15,02,28,11.30
2015,07,15,02,29,6.40
2015,07,15,02,30,9.60
2015,07,15,02,31,11.30
2015,07,15,02,32,14.50
2015,07,15,02,33,11.30
2015,07,15,02,34,12.90
2015,07,15,02,35,11.30
2015,07,15,02,36,11.30
2015,07,15,02,37,9.60
2015,07,15,02,38,9.60
2015,07,15,02,39,11.30
2015,07,15,02,40,9.60
2015,07,15,02,41,12.90
2015,07,15,02,42,8.10
2015,07,15,02,43,8.10
2015,07,15,02,44,12.90
2015,07,15,02,45,8.10
2015,07,15,02,46,9.60
2015,07,15,02,47,12.90
2015,07,15,02,48,11.30
2015,07,15,02,49,6.40
2015,07,15,02,50,8.10
2015,07,15,02,51,6.40
2015,07,15,02,52,8.10
2015,07,15,02,53,6.40
2015,07,15,02,54,4.80
2015,07,15,02,55,8.10
2015,07,15,02,56,8.10
2015,07,15,02,57,8.10
2015,07,15,02,58,4.80
2015,07,15,02,59,8.10
2015,07,15,03,00,6.40
2015,07,15,03,01,11.30
2015,07,15,03,02,9.60
2015,07,15,03,03,4.80
2015,07,15,03,04,6.40
2015,07,15,03,05,9.60
2015,07,15,03,06,8.10
2015,07,15,03,07,8.10
2015,07,15,03,08,6.40
2015,07,15,03,09,6.40
2015,07,15,03,10,8.10
2015,07,15,03,11,8.10
2015,07,15,03,12,9.60
2015,07,15,03,13,6.40
2015,07,15,03,14,9.60
2015,07,15,03,15,11.30
2015,07,15,03,16,8.10
2015,07,15,03,17,8.10
2015,07,15,03,18,8.10
2015,07,15,03,19,6.40
2015,07,15,03,20,6.40
2015,07,15,03,21,6.40
2015,07,15,03,22,4.80
2015,07,15,03,23,9.60
2015,07,15,03,24,9.60
2015,07,15,03,25,8.10
2015,07,15,03,26,6.40
2015,07,15,03,27,6.40
2015,07,15,03,28,8.10
2015,07,15,03,29,8.10
2015,07,15,03,30,8.10
2015,07,15,03,31,9.60
2015,07,15,03,32,9.60
2015,07,15,03,33,8.10
2015,07,15,03,34,8.10
2015,07,15,03,35,8.10
2015,07,15,03,36,6.40
2015,07,15,03,37,9.60
2015,07,15,03,38,4.80
2015,07,15,03,39,4.80
2015,07,15,03,40,6.40
2015,07,15,03,41,8.10
2015,07,15,03,42,8.10
2015,07,15,03,43,11.30
2015,07,15,03,44,9.60
2015,07,15,03,45,8.10
2015,07,15,03,46,8.10
2015,07,15,03,47,9.60
2015,07,15,03,48,8.10
2015,07,15,03,49,8.10
2015,07,15,03,50,11.30
2015,07,15,03,51,11.30
2015,07,15,03,52,8.10
2015,07,15,03,53,9.60
2015,07,15,03,54,11.30
2015,07,15,03,55,11.30
2015,07,15,03,56,9.60
2015,07,15,03,57,9.60
2015,07,15,03,58,11.30
2015,07,15,03,59,8.10
2015,07,15,04,00,8.10
2015,07,15,04,01,8.10
2015,07,15,04,02,11.30
2015,07,15,04,03,9.60
2015,07,15,04,04,9.60
2015,07,15,04,05,9.60
2015,07,15,04,06,9.60
2015,07,15,04,07,9.60
2015,07,15,04,08,8.10
2015,07,15,04,09,4.80
2015,07,15,04,10,6.40
2015,07,15,04,11,8.10
2015,07,15,04,12,8.10
2015,07,15,04,13,8.10
2015,07,15,04,14,8.10
2015,07,15,04,15,8.10
2015,07,15,04,16,8.10
2015,07,15,04,17,6.40
2015,07,15,04,18,6.40
2015,07,15,04,19,8.10
2015,07,15,04,20,9.60
2015,07,15,04,21,9.60
2015,07,15,04,22,8.10
2015,07,15,04,23,6.40
2015,07,15,04,24,9.60
2015,07,15,04,25,8.10
2015,07,15,04,26,6.40
2015,07,15,04,27,8.10
2015,07,15,04,28,6.40
2015,07,15,04,29,8.10
2015,07,15,04,30,12.90
2015,07,15,04,31,12.90
2015,07,15,04,32,8.10
2015,07,15,04,33,11.30
2015,07,15,04,34,9.60
2015,07,15,04,35,6.40
2015,07,15,04,36,6.40
2015,07,15,04,37,6.40
2015,07,15,04,38,8.10
2015,07,15,04,39,6.40
2015,07,15,04,40,6.40
2015,07,15,04,41,6.40
2015,07,15,04,42,8.10
2015,07,15,04,43,6.40
2015,07,15,04,44,6.40
2015,07,15,04,45,4.80
2015,07,15,04,46,4.80
2015,07,15,04,47,4.80
2015,07,15,04,48,6.40
2015,07,15,04,49,4.80
2015,07,15,04,50,3.20
2015,07,15,04,51,3.20
2015,07,15,04,52,1.60
2015,07,15,04,53,1.60
2015,07,15,04,54,1.60
2015,07,15,04,55,3.20
2015,07,15,04,57,1.60
2015,07,15,04,58,1.60
2015,07,15,04,59,1.60
2015,07,15,05,00,1.60
2015,07,15,05,01,1.60
2015,07,15,05,02,3.20
2015,07,15,05,03,4.80
2015,07,15,05,04,3.20
2015,07,15,05,05,3.20
2015,07,15,05,06,3.20
2015,07,15,05,07,3.20
2015,07,15,05,08,3.20
2015,07,15,05,09,3.20
2015,07,15,05,10,1.60
2015,07,15,05,11,1.60
2015,07,15,05,13,1.60
2015,07,15,05,15,1.60
2015,07,15,05,16,3.20
2015,07,15,05,17,3.20
2015,07,15,05,18,3.20
2015,07,15,05,19,1.60
2015,07,15,05,20,1.60
2015,07,15,05,21,3.20
2015,07,15,05,22,3.20
2015,07,15,05,23,3.20
2015,07,15,05,24,1.60
2015,07,15,05,25,1.60
2015,07,15,05,26,1.60
2015,07,15,05,27,1.60
2015,07,15,05,28,1.60
2015,07,15,05,32,1.60
2015,07,15,05,33,3.20
2015,07,15,05,34,1.60
2015,07,15,05,35,3.20
2015,07,15,05,36,3.20
2015,07,15,05,37,3.20
2015,07,15,05,38,3.20
2015,07,15,05,39,3.20
2015,07,15,05,40,3.20
2015,07,15,05,41,1.60
2015,07,15,05,42,3.20
2015,07,15,05,43,3.20
2015,07,15,05,44,1.60
2015,07,15,05,45,1.60
2015,07,15,05,46,1.60
2015,07,15,05,47,3.20
2015,07,15,05,48,3.20
2015,07,15,05,49,1.60
2015,07,15,05,50,1.60
2015,07,15,05,51,3.20
2015,07,15,05,52,1.60
2015,07,15,05,53,1.60
2015,07,15,05,54,4.80
2015,07,15,05,55,4.80
2015,07,15,05,56,1.60
2015,07,15,05,57,3.20
2015,07,15,05,58,4.80
2015,07,15,05,59,4.80
2015,07,15,06,00,6.40
2015,07,15,06,01,6.40
2015,07,15,06,02,6.40
2015,07,15,06,03,6.40
2015,07,15,06,04,8.10
2015,07,15,06,05,6.40
2015,07,15,06,06,4.80
2015,07,15,06,07,6.40
2015,07,15,06,08,6.40
2015,07,15,06,09,6.40
2015,07,15,06,10,12.90
2015,07,15,06,11,11.30
2015,07,15,06,12,11.30
2015,07,15,06,13,9.60
2015,07,15,06,14,9.60
2015,07,15,06,15,11.30
2015,07,15,06,16,8.10
2015,07,15,06,17,4.80
2015,07,15,06,18,6.40
2015,07,15,06,19,4.80
2015,07,15,06,20,9.60
2015,07,15,06,21,9.60
2015,07,15,06,22,9.60
2015,07,15,06,23,14.50
2015,07,15,06,24,11.30
2015,07,15,06,25,9.60
2015,07,15,06,26,9.60
2015,07,15,06,27,11.30
2015,07,15,06,28,11.30
2015,07,15,06,29,11.30
2015,07,15,06,30,16.10
2015,07,15,06,31,11.30
2015,07,15,06,32,9.60
2015,07,15,06,33,6.40
2015,07,15,06,34,9.60
2015,07,15,06,35,14.50
2015,07,15,06,36,9.60
2015,07,15,06,37,11.30
2015,07,15,06,38,9.60
2015,07,15,06,39,12.90
2015,07,15,06,40,12.90
2015,07,15,06,41,9.60
2015,07,15,06,42,9.60
2015,07,15,06,43,14.50
2015,07,15,06,44,12.90
2015,07,15,06,45,8.10
2015,07,15,06,46,6.40
2015,07,15,06,47,11.30
2015,07,15,06,48,9.60
2015,07,15,06,49,9.60
2015,07,15,06,50,11.30
2015,07,15,06,51,12.90
2015,07,15,06,52,12.90
2015,07,15,06,53,9.60
2015,07,15,06,54,9.60
2015,07,15,06,55,11.30
2015,07,15,06,56,11.30
2015,07,15,06,57,11.30
2015,07,15,06,58,9.60
2015,07,15,06,59,6.40
2015,07,15,07,00,8.10
2015,07,15,07,01,6.40
2015,07,15,07,02,11.30
2015,07,15,07,03,8.10
2015,07,15,07,04,9.60
2015,07,15,07,05,8.10
2015,07,15,07,06,8.10
2015,07,15,07,07,9.60
2015,07,15,07,08,8.10
2015,07,15,07,09,6.40
2015,07,15,07,10,8.10
2015,07,15,07,11,8.10
2015,07,15,07,12,3.20
2015,07,15,07,13,4.80
2015,07,15,07,14,8.10
2015,07,15,07,15,8.10
2015,07,15,07,16,6.40
2015,07,15,07,17,4.80
2015,07,15,07,18,8.10
2015,07,15,07,19,6.40
2015,07,15,07,20,6.40
2015,07,15,07,21,11.30
2015,07,15,07,22,8.10
2015,07,15,07,23,9.60
2015,07,15,07,24,8.10
2015,07,15,07,25,11.30
2015,07,15,07,26,11.30
2015,07,15,07,27,11.30
2015,07,15,07,28,11.30
2015,07,15,07,29,9.60
2015,07,15,07,30,8.10
2015,07,15,07,31,9.60
2015,07,15,07,32,12.90
2015,07,15,07,33,12.90
2015,07,15,07,34,12.90
2015,07,15,07,35,8.10
2015,07,15,07,36,8.10
2015,07,15,07,37,8.10
2015,07,15,07,38,12.90
2015,07,15,07,39,11.30
2015,07,15,07,40,12.90
2015,07,15,07,41,11.30
2015,07,15,07,42,9.60
2015,07,15,07,43,9.60
2015,07,15,07,44,11.30
2015,07,15,07,45,8.10
2015,07,15,07,46,12.90
2015,07,15,07,47,11.30
2015,07,15,07,48,12.90
2015,07,15,07,49,11.30
2015,07,15,07,50,14.50
2015,07,15,07,51,11.30
2015,07,15,07,52,12.90
2015,07,15,07,53,12.90
2015,07,15,07,54,11.30
2015,07,15,07,55,16.10
2015,07,15,07,56,20.90
2015,07,15,07,57,12.90
2015,07,15,07,58,12.90
2015,07,15,07,59,12.90
2015,07,15,08,00,14.50
2015,07,15,08,01,9.60
2015,07,15,08,02,9.60
2015,07,15,08,03,12.90
2015,07,15,08,04,9.60
2015,07,15,08,05,12.90
2015,07,15,08,06,8.10
2015,07,15,08,07,14.50
2015,07,15,08,08,12.90
2015,07,15,08,09,14.50
2015,07,15,08,10,16.10
2015,07,15,08,11,12.90
2015,07,15,08,12,12.90
2015,07,15,08,13,11.30
2015,07,15,08,14,12.90
2015,07,15,08,15,14.50
2015,07,15,08,16,8.10
2015,07,15,08,17,11.30
2015,07,15,08,18,14.50
2015,07,15,08,19,12.90
2015,07,15,08,20,12.90
2015,07,15,08,21,11.30
2015,07,15,08,22,11.30
2015,07,15,08,23,14.50
2015,07,15,08,24,14.50
2015,07,15,08,25,11.30
2015,07,15,08,26,16.10
2015,07,15,08,27,14.50
2015,07,15,08,28,11.30
2015,07,15,08,29,8.10
2015,07,15,08,30,11.30
2015,07,15,08,31,11.30
2015,07,15,08,32,14.50
2015,07,15,08,33,12.90
2015,07,15,08,34,11.30
2015,07,15,08,35,11.30
2015,07,15,08,36,9.60
2015,07,15,08,37,6.40
2015,07,15,08,38,12.90
2015,07,15,08,39,12.90
2015,07,15,08,40,9.60
2015,07,15,08,41,11.30
2015,07,15,08,42,9.60
2015,07,15,08,43,4.80
2015,07,15,08,44,4.80
2015,07,15,08,45,11.30
2015,07,15,08,46,12.90
2015,07,15,08,47,12.90
2015,07,15,08,48,8.10
2015,07,15,08,49,4.80
2015,07,15,08,50,11.30
2015,07,15,08,51,6.40
2015,07,15,08,52,11.30
2015,07,15,08,53,9.60
2015,07,15,08,54,8.10
2015,07,15,08,55,8.10
2015,07,15,08,56,12.90
2015,07,15,08,57,8.10
2015,07,15,08,58,8.10
2015,07,15,08,59,4.80
2015,07,15,09,00,8.10
2015,07,15,09,01,11.30
2015,07,15,09,02,9.60
2015,07,15,09,03,12.90
2015,07,15,09,04,11.30
2015,07,15,09,05,9.60
2015,07,15,09,06,9.60
2015,07,15,09,07,8.10
2015,07,15,09,08,12.90
2015,07,15,09,09,9.60
2015,07,15,09,10,6.40
2015,07,15,09,11,9.60
2015,07,15,09,12,8.10
2015,07,15,09,13,8.10
2015,07,15,09,14,11.30
2015,07,15,09,15,11.30
2015,07,15,09,16,16.10
2015,07,15,09,17,12.90
2015,07,15,09,18,8.10
2015,07,15,09,19,9.60
2015,07,15,09,20,6.40
2015,07,15,09,21,11.30
2015,07,15,09,22,17.70
2015,07,15,09,23,14.50
2015,07,15,09,24,6.40
2015,07,15,09,25,9.60
2015,07,15,09,26,12.90
2015,07,15,09,27,11.30
2015,07,15,09,28,14.50
2015,07,15,09,29,11.30
2015,07,15,09,30,8.10
2015,07,15,09,31,12.90
2015,07,15,09,32,11.30
2015,07,15,09,33,11.30
2015,07,15,09,34,8.10
2015,07,15,09,35,12.90
2015,07,15,09,36,11.30
2015,07,15,09,37,9.60
2015,07,15,09,38,11.30
2015,07,15,09,39,12.90
2015,07,15,09,40,12.90
2015,07,15,09,41,9.60
2015,07,15,09,42,12.90
2015,07,15,09,43,11.30
2015,07,15,09,44,12.90
2015,07,15,09,45,12.90
2015,07,15,09,46,14.50
2015,07,15,09,47,16.10
2015,07,15,09,48,11.30
2015,07,15,09,49,12.90
2015,07,15,09,50,14.50
2015,07,15,09,51,12.90
2015,07,15,09,52,14.50
2015,07,15,09,53,14.50
2015,07,15,09,54,14.50
2015,07,15,09,55,11.30
2015,07,15,09,56,12.90
2015,07,15,09,57,9.60
2015,07,15,09,58,12.90
2015,07,15,09,59,14.50
2015,07,15,10,00,12.90
2015,07,15,10,01,16.10
2015,07,15,10,02,11.30
2015,07,15,10,03,9.60
2015,07,15,10,04,8.10
2015,07,15,10,05,12.90
2015,07,15,10,06,8.10
2015,07,15,10,07,14.50
2015,07,15,10,08,14.50
2015,07,15,10,09,11.30
2015,07,15,10,10,9.60
2015,07,15,10,11,12.90
2015,07,15,10,12,11.30
2015,07,15,10,13,11.30
2015,07,15,10,14,11.30
2015,07,15,10,15,11.30
2015,07,15,10,16,11.30
2015,07,15,10,17,11.30
2015,07,15,10,18,9.60
2015,07,15,10,19,14.50
2015,07,15,10,20,14.50
2015,07,15,10,21,12.90
2015,07,15,10,22,12.90
2015,07,15,10,23,14.50
2015,07,15,10,24,12.90
2015,07,15,10,25,9.60
2015,07,15,10,26,12.90
2015,07,15,10,27,12.90
2015,07,15,10,28,14.50
2015,07,15,10,29,9.60
2015,07,15,10,30,17.70
2015,07,15,10,31,14.50
2015,07,15,10,32,12.90
2015,07,15,10,33,14.50
2015,07,15,10,34,11.30
2015,07,15,10,35,9.60
2015,07,15,10,36,6.40
2015,07,15,10,37,8.10
2015,07,15,10,38,9.60
2015,07,15,10,39,11.30
2015,07,15,10,40,16.10
2015,07,15,10,41,19.30
2015,07,15,10,42,16.10
2015,07,15,10,43,14.50
2015,07,15,10,44,19.30
2015,07,15,10,45,17.70
2015,07,15,10,46,11.30
2015,07,15,10,47,6.40
2015,07,15,10,48,14.50
2015,07,15,10,49,17.70
2015,07,15,10,50,14.50
2015,07,15,10,51,11.30
2015,07,15,10,52,9.60
2015,07,15,10,53,14.50
2015,07,15,10,54,12.90
2015,07,15,10,55,12.90
2015,07,15,10,56,14.50
2015,07,15,10,57,12.90
2015,07,15,10,58,14.50
2015,07,15,10,59,17.70
2015,07,15,11,00,17.70
2015,07,15,11,01,16.10
2015,07,15,11,02,12.90
2015,07,15,11,03,14.50
2015,07,15,11,04,17.70
2015,07,15,11,05,16.10
2015,07,15,11,06,19.30
2015,07,15,11,07,16.10
2015,07,15,11,08,14.50
2015,07,15,11,09,20.90
2015,07,15,11,10,12.90
2015,07,15,11,11,14.50
2015,07,15,11,12,19.30
2015,07,15,11,13,19.30
2015,07,15,11,14,20.90
2015,07,15,11,15,19.30
2015,07,15,11,16,20.90
2015,07,15,11,17,20.90
2015,07,15,11,18,14.50
2015,07,15,11,19,16.10
2015,07,15,11,20,19.30
2015,07,15,11,21,19.30
2015,07,15,11,22,27.40
2015,07,15,11,23,17.70
2015,07,15,11,24,16.10
2015,07,15,11,25,17.70
2015,07,15,11,26,14.50
2015,07,15,11,27,14.50
2015,07,15,11,28,11.30
2015,07,15,11,29,11.30
2015,07,15,11,30,16.10
2015,07,15,11,31,16.10
2015,07,15,11,32,9.60
2015,07,15,11,33,16.10
2015,07,15,11,34,14.50
2015,07,15,11,35,20.90
2015,07,15,11,36,16.10
2015,07,15,11,37,17.70
2015,07,15,11,38,20.90
2015,07,15,11,39,14.50
2015,07,15,11,40,14.50
2015,07,15,11,41,11.30
2015,07,15,11,42,16.10
2015,07,15,11,43,16.10
2015,07,15,11,44,17.70
2015,07,15,11,45,11.30
2015,07,15,11,46,9.60
2015,07,15,11,47,19.30
2015,07,15,11,48,16.10
2015,07,15,11,49,12.90
2015,07,15,11,50,14.50
2015,07,15,11,51,11.30
2015,07,15,11,52,20.90
2015,07,15,11,53,19.30
2015,07,15,11,54,20.90
2015,07,15,11,55,19.30
2015,07,15,11,56,16.10
2015,07,15,11,57,16.10
2015,07,15,11,58,17.70
2015,07,15,11,59,12.90
2015,07,15,12,00,14.50
2015,07,15,12,01,20.90
2015,07,15,12,02,16.10
2015,07,15,12,03,14.50
2015,07,15,12,04,19.30
2015,07,15,12,05,14.50
2015,07,15,12,06,14.50
2015,07,15,12,07,16.10
2015,07,15,12,08,17.70
2015,07,15,12,09,12.90
2015,07,15,12,10,17.70
2015,07,15,12,11,19.30
2015,07,15,12,12,20.90
2015,07,15,12,13,20.90
2015,07,15,12,14,17.70
2015,07,15,12,15,17.70
2015,07,15,12,16,19.30
2015,07,15,12,17,14.50
2015,07,15,12,18,17.70
2015,07,15,12,19,17.70
2015,07,15,12,20,22.50
2015,07,15,12,21,17.70
2015,07,15,12,22,17.70
2015,07,15,12,23,14.50
2015,07,15,12,24,17.70
2015,07,15,12,25,11.30
2015,07,15,12,26,17.70
2015,07,15,12,27,17.70
2015,07,15,12,28,12.90
2015,07,15,12,29,8.10
2015,07,15,12,30,9.60
2015,07,15,12,31,17.70
2015,07,15,12,32,17.70
2015,07,15,12,33,16.10
2015,07,15,12,34,14.50
2015,07,15,12,35,12.90
2015,07,15,12,36,12.90
2015,07,15,12,37,9.60
2015,07,15,12,38,12.90
2015,07,15,12,39,17.70
2015,07,15,12,40,14.50
2015,07,15,12,41,11.30
2015,07,15,12,42,20.90
2015,07,15,12,43,25.70
2015,07,15,12,44,20.90
2015,07,15,12,45,17.70
2015,07,15,12,46,14.50
2015,07,15,12,47,22.50
2015,07,15,12,48,24.20
2015,07,15,12,49,22.50
2015,07,15,12,50,16.10
2015,07,15,12,51,16.10
2015,07,15,12,52,14.50
2015,07,15,12,53,12.90
2015,07,15,12,54,12.90
2015,07,15,12,55,14.50
2015,07,15,12,56,17.70
2015,07,15,12,57,24.20
2015,07,15,12,58,25.70
2015,07,15,12,59,22.50
2015,07,15,13,00,24.20
2015,07,15,13,01,25.70
2015,07,15,13,02,29.00
2015,07,15,13,03,19.30
2015,07,15,13,04,22.50
2015,07,15,13,05,17.70
2015,07,15,13,06,12.90
2015,07,15,13,07,27.40
2015,07,15,13,08,17.70
2015,07,15,13,09,24.20
2015,07,15,13,10,19.30
2015,07,15,13,11,20.90
2015,07,15,13,12,33.80
2015,07,15,13,13,29.00
2015,07,15,13,14,22.50
2015,07,15,13,15,24.20
2015,07,15,13,16,20.90
2015,07,15,13,17,32.20
2015,07,15,13,18,32.20
2015,07,15,13,19,25.70
2015,07,15,13,20,22.50
2015,07,15,13,21,16.10
2015,07,15,13,22,19.30
2015,07,15,13,23,29.00
2015,07,15,13,24,29.00
2015,07,15,13,25,32.20
2015,07,15,13,26,30.60
2015,07,15,13,27,29.00
2015,07,15,13,28,29.00
2015,07,15,13,29,24.20
2015,07,15,13,30,27.40
2015,07,15,13,31,22.50
2015,07,15,13,32,27.40
2015,07,15,13,33,24.20
2015,07,15,13,34,25.70
2015,07,15,13,35,20.90
2015,07,15,13,36,29.00
2015,07,15,13,37,20.90
2015,07,15,13,38,24.20
2015,07,15,13,39,29.00
2015,07,15,13,40,27.40
2015,07,15,13,41,25.70
2015,07,15,13,42,24.20
2015,07,15,13,43,22.50
2015,07,15,13,44,22.50
2015,07,15,13,45,30.60
2015,07,15,13,46,29.00
2015,07,15,13,47,30.60
2015,07,15,13,48,20.90
2015,07,15,13,49,30.60
2015,07,15,13,50,22.50
2015,07,15,13,51,16.10
2015,07,15,13,52,32.20
2015,07,15,13,53,22.50
2015,07,15,13,54,29.00
2015,07,15,13,55,29.00
2015,07,15,13,56,25.70
2015,07,15,13,57,22.50
2015,07,15,13,58,25.70
2015,07,15,13,59,32.20
2015,07,15,14,00,29.00
2015,07,15,14,01,32.20
2015,07,15,14,02,29.00
2015,07,15,14,03,25.70
2015,07,15,14,04,24.20
2015,07,15,14,05,24.20
2015,07,15,14,06,30.60
2015,07,15,14,07,29.00
2015,07,15,14,08,25.70
2015,07,15,14,09,17.70
2015,07,15,14,10,19.30
2015,07,15,14,11,32.20
2015,07,15,14,12,25.70
2015,07,15,14,13,22.50
2015,07,15,14,14,22.50
2015,07,15,14,15,27.40
2015,07,15,14,16,32.20
2015,07,15,14,17,25.70
2015,07,15,14,18,29.00
2015,07,15,14,19,24.20
2015,07,15,14,20,27.40
2015,07,15,14,21,32.20
2015,07,15,14,22,27.40
2015,07,15,14,23,27.40
2015,07,15,14,24,35.40
2015,07,15,14,25,25.70
2015,07,15,14,26,30.60
2015,07,15,14,27,20.90
2015,07,15,14,28,19.30
2015,07,15,14,29,33.80
2015,07,15,14,30,33.80
2015,07,15,14,31,29.00
2015,07,15,14,32,30.60
2015,07,15,14,33,30.60
2015,07,15,14,34,20.90
2015,07,15,14,35,40.20
2015,07,15,14,36,33.80
2015,07,15,14,37,29.00
2015,07,15,14,38,24.20
2015,07,15,14,39,22.50
2015,07,15,14,40,33.80
2015,07,15,14,41,24.20
2015,07,15,14,42,22.50
2015,07,15,14,43,25.70
2015,07,15,14,44,22.50
2015,07,15,14,45,25.70
2015,07,15,14,46,27.40
2015,07,15,14,47,29.00
2015,07,15,14,48,32.20
2015,07,15,14,49,32.20
2015,07,15,14,50,32.20
2015,07,15,14,51,27.40
2015,07,15,14,52,35.40
2015,07,15,14,53,25.70
2015,07,15,14,54,20.90
2015,07,15,14,55,16.10
2015,07,15,14,56,22.50
2015,07,15,14,57,30.60
2015,07,15,14,58,40.20
2015,07,15,14,59,30.60
2015,07,15,15,00,32.20
2015,07,15,15,01,32.20
2015,07,15,15,02,40.20
2015,07,15,15,03,30.60
2015,07,15,15,04,29.00
2015,07,15,15,05,35.40
2015,07,15,15,06,29.00
2015,07,15,15,07,25.70
2015,07,15,15,08,33.80
2015,07,15,15,09,33.80
2015,07,15,15,10,22.50
2015,07,15,15,11,37.00
2015,07,15,15,12,30.60
2015,07,15,15,13,27.40
2015,07,15,15,14,33.80
2015,07,15,15,15,27.40
2015,07,15,15,16,27.40
2015,07,15,15,17,33.80
2015,07,15,15,18,27.40
2015,07,15,15,19,35.40
2015,07,15,15,20,22.50
2015,07,15,15,21,12.90
2015,07,15,15,22,29.00
2015,07,15,15,23,32.20
2015,07,15,15,24,27.40
2015,07,15,15,25,29.00
2015,07,15,15,26,20.90
2015,07,15,15,27,27.40
2015,07,15,15,28,20.90
2015,07,15,15,29,30.60
2015,07,15,15,30,30.60
2015,07,15,15,31,27.40
2015,07,15,15,32,40.20
2015,07,15,15,33,33.80
2015,07,15,15,34,27.40
2015,07,15,15,35,27.40
2015,07,15,15,36,33.80
2015,07,15,15,37,35.40
2015,07,15,15,38,25.70
2015,07,15,15,39,29.00
2015,07,15,15,40,25.70
2015,07,15,15,41,25.70
2015,07,15,15,42,27.40
2015,07,15,15,43,24.20
2015,07,15,15,44,40.20
2015,07,15,15,45,32.20
2015,07,15,15,46,41.80
2015,07,15,15,47,41.80
2015,07,15,15,48,29.00
2015,07,15,15,49,33.80
2015,07,15,15,50,32.20
2015,07,15,15,51,22.50
2015,07,15,15,52,25.70
2015,07,15,15,53,27.40
2015,07,15,15,54,33.80
2015,07,15,15,55,33.80
2015,07,15,15,56,29.00
2015,07,15,15,57,32.20
2015,07,15,15,58,27.40
2015,07,15,15,59,22.50
2015,07,15,16,00,30.60
2015,07,15,16,01,32.20
2015,07,15,16,02,22.50
2015,07,15,16,03,22.50
2015,07,15,16,04,25.70
2015,07,15,16,05,25.70
2015,07,15,16,06,33.80
2015,07,15,16,07,27.40
2015,07,15,16,08,20.90
2015,07,15,16,09,22.50
2015,07,15,16,10,22.50
2015,07,15,16,11,27.40
2015,07,15,16,12,32.20
2015,07,15,16,13,32.20
2015,07,15,16,14,37.00
2015,07,15,16,15,30.60
2015,07,15,16,16,32.20
2015,07,15,16,17,27.40
2015,07,15,16,18,27.40
2015,07,15,16,19,29.00
2015,07,15,16,20,27.40
2015,07,15,16,21,27.40
2015,07,15,16,22,27.40
2015,07,15,16,23,20.90
2015,07,15,16,24,27.40
2015,07,15,16,25,24.20
2015,07,15,16,26,14.50
2015,07,15,16,27,24.20
2015,07,15,16,28,29.00
2015,07,15,16,29,24.20
2015,07,15,16,30,24.20
2015,07,15,16,31,19.30
2015,07,15,16,32,32.20
2015,07,15,16,33,37.00
2015,07,15,16,34,32.20
2015,07,15,16,35,25.70
2015,07,15,16,36,19.30
2015,07,15,16,37,24.20
2015,07,15,16,38,19.30
2015,07,15,16,39,20.90
2015,07,15,16,40,27.40
2015,07,15,16,41,22.50
2015,07,15,16,42,22.50
2015,07,15,16,43,29.00
2015,07,15,16,44,19.30
2015,07,15,16,45,27.40
2015,07,15,16,46,32.20
2015,07,15,16,47,33.80
2015,07,15,16,48,27.40
2015,07,15,16,49,30.60
2015,07,15,16,50,43.50
2015,07,15,16,51,25.70
2015,07,15,16,52,20.90
2015,07,15,16,53,32.20
2015,07,15,16,54,35.40
2015,07,15,16,55,40.20
2015,07,15,16,56,27.40
2015,07,15,16,57,40.20
2015,07,15,16,58,38.60
2015,07,15,16,59,19.30
2015,07,15,17,00,22.50
2015,07,15,17,01,27.40
2015,07,15,17,02,27.40
2015,07,15,17,03,30.60
2015,07,15,17,04,35.40
2015,07,15,17,05,40.20
2015,07,15,17,06,37.00
2015,07,15,17,07,29.00
2015,07,15,17,08,35.40
2015,07,15,17,09,51.50
2015,07,15,17,10,29.00
2015,07,15,17,11,32.20
2015,07,15,17,12,33.80
2015,07,15,17,13,27.40
2015,07,15,17,14,33.80
2015,07,15,17,15,32.20
2015,07,15,17,16,30.60
2015,07,15,17,17,17.70
2015,07,15,17,18,24.20
2015,07,15,17,19,25.70
2015,07,15,17,20,30.60
2015,07,15,17,21,25.70
2015,07,15,17,22,27.40
2015,07,15,17,23,30.60
2015,07,15,17,24,33.80
2015,07,15,17,25,24.20
2015,07,15,17,26,32.20
2015,07,15,17,27,22.50
2015,07,15,17,28,27.40
2015,07,15,17,29,29.00
2015,07,15,17,30,25.70
2015,07,15,17,31,30.60
2015,07,15,17,32,24.20
2015,07,15,17,33,25.70
2015,07,15,17,34,29.00
2015,07,15,17,35,25.70
2015,07,15,17,36,29.00
2015,07,15,17,37,35.40
2015,07,15,17,38,37.00
2015,07,15,17,39,37.00
2015,07,15,17,40,38.60
2015,07,15,17,41,30.60
2015,07,15,17,42,29.00